Wind_Speed
119 118 117 116 116 115 115 115 115 115 116 116 117 117 118 119 119 120 120 121 121 121 122 123 123 124 124 125 125 125 125 125 125 125 125 125 126 126 126 127 127 127
123 122 121 119 119 118 117 117 116 117 117 117 118 119 119 120 121 122 122 123 124 124 125 125 126 127 127 128 128 128 129 129 129 129 129 128 129 129 129 130 131 131
123 122 121 120 119 119 118 117 117 116 116 116 117 117 118 119 119 121 121 122 123 124 125 126 127 127 128 128 129 130 130 131 131 132 131 131 131 132 132 132 133 133
122 121 121 120 119 118 118 117 117 116 116 115 116 116 116 116 117 118 118 119 120 120 122 123 123 124 125 126 126 127 128 129 130 131 131 131 131 132 133 133 134 134
120 120 120 120 119 119 118 117 117 116 116 115 115 115 115 115 115 116 116 117 117 118 119 119 120 121 122 122 123 123 124 125 126 127 127 128 128 129 130 131 132 132
119 118 118 118 119 118 118 117 117 116 116 115 115 115 114 114 114 114 115 115 115 116 117 117 118 119 120 120 121 121 122 122 123 124 125 125 125 126 127 127 128 128
115 115 115 115 115 115 115 115 115 114 114 114 113 113 113 113 113 113 113 113 113 114 114 115 116 117 117 118 118 119 120 120 121 122 122 122 123 123 124 125 125 125
112 111 111 110 110 110 110 110 110 110 110 109 109 110 110 110 110 110 110 110 110 110 111 112 113 113 114 115 115 116 117 118 118 119 119 120 120 121 121 122 123 122
109 108 108 108 107 108 108 108 107 107 107 106 106 107 107 107 107 107 107 107 107 108 109 109 110 111 111 112 113 113 114 115 116 116 117 117 117 118 119 120 120 119
107 107 107 106 106 106 106 106 106 105 105 105 104 104 104 104 104 104 104 104 105 105 106 107 108 108 109 110 111 111 112 112 113 114 114 114 115 115 116 117 118 117
107 106 106 105 105 104 104 104 104 103 103 103 102 102 102 101 101 101 101 101 101 101 102 103 104 105 106 107 108 108 109 109 110 111 111 112 112 112 113 114 115 115
106 105 105 105 105 104 104 103 103 102 102 102 102 101 101 101 100 100 99 99 99 99 99 100 100 101 101 102 103 104 104 105 105 106 107 107 108 108 109 110 111 111
105 105 105 105 105 105 104 104 103 103 102 102 102 101 101 101 100 100 100 99 99 99 99 99 99 99 100 100 100 101 101 101 102 102 103 103 104 104 105 106 107 108
103 103 103 103 103 103 103 102 102 102 101 101 101 100 100 100 99 99 99 99 99 99 99 99 99 99 99 99 99 99 99 99 99 99 99 100 100 101 102 104 105 106
101 101 101 101 101 100 100 100 100 99 99 99 99 98 98 98 98 98 98 98 98 98 98 98 98 98 98 98 98 97 97 97 97 97 97 97 98 99 101 102 103 105
100 100 100 99 99 98 98 97 97 97 97 97 96 96 96 95 96 96 96 96 96 96 97 97 97 97 97 96 96 95 95 95 95 95 95 95 96 97 98 99 101 102
99 98 98 98 97 97 96 95 95 95 95 94 94 94 94 93 94 94 94 95 94 94 94 95 95 95 95 94 94 94 93 93 93 93 93 94 94 94 95 96 97 98
96 96 96 96 95 95 94 94 93 93 92 92 91 91 91 91 91 92 92 92 92 91 91 91 91 92 92 91 91 91 92 92 91 91 90 91 92 92 92 93 94 95
94 94 94 94 93 93 92 92 91 91 90 89 88 88 88 89 89 89 89 90 89 88 87 87 87 88 88 87 87 88 89 90 89 87 86 86 87 88 89 89 90 92
91 91 91 91 91 90 90 90 89 89 88 87 86 86 86 87 87 87 88 88 87 86 84 84 85 85 85 85 85 86 87 86 85 83 82 81 82 83 84 85 87 89
89 88 89 89 88 88 88 88 87 87 86 85 84 84 85 85 85 86 86 86 86 85 83 82 83 84 84 84 84 84 84 82 81 80 79 78 78 80 82 83 84 86
86 85 85 85 85 85 85 85 85 84 84 83 82 82 83 84 84 84 84 84 84 83 81 80 81 83 83 82 82 81 80 78 78 78 78 76 77 79 80 80 81 82
83 82 82 82 82 82 82 82 82 82 81 81 80 80 81 82 82 81 82 82 81 80 79 77 77 80 81 79 78 77 76 75 75 76 75 75 77 78 77 77 77 78
80 80 79 78 79 79 79 79 79 79 78 78 77 77 78 79 79 78 79 79 77 75 74 73 73 76 77 76 74 73 73 73 72 72 73 75 76 75 74 72 73 73
77 76 76 76 75 76 76 76 75 75 75 74 74 74 74 75 75 75 75 76 75 71 70 69 70 72 73 72 70 70 70 70 68 68 71 73 73 70 69 68 68 69
75 74 74 73 73 73 74 74 72 71 71 71 71 71 71 72 72 71 71 72 71 68 66 67 68 68 69 68 67 68 68 66 65 67 69 69 67 65 65 64 64 65
Wind_Direction
281 280 279 278 277 276 275 274 273 273 272 271 271 270 270 270 269 269 268 268 268 267 267 267 266 266 266 265 265 265 264 263 262 261 261 260 259 259 258 258 257 256
282 281 280 279 278 278 276 275 274 273 273 272 271 271 270 270 269 269 269 268 268 268 267 267 266 266 266 265 265 265 264 264 263 262 261 260 260 259 258 258 257 257
281 280 280 279 279 278 277 276 275 274 273 273 272 271 270 270 269 269 268 268 267 267 267 266 266 266 265 265 264 264 264 263 263 262 262 261 260 260 259 259 258 257
280 280 280 279 279 278 278 277 276 276 275 274 273 272 271 271 270 269 269 268 268 267 267 267 266 266 265 265 264 264 263 263 263 262 262 261 261 260 260 259 259 258
280 280 280 280 279 279 278 278 277 277 276 275 274 273 273 272 271 270 270 269 269 268 268 267 267 267 266 265 265 264 264 263 263 262 262 262 261 260 260 259 259 258
281 280 280 280 279 279 278 278 278 277 276 276 275 274 274 273 272 271 271 270 269 269 269 268 268 267 267 266 266 265 265 264 264 263 263 262 262 261 261 260 260 259
281 281 280 279 279 278 278 277 277 276 276 275 275 274 273 273 272 271 271 270 269 269 268 268 267 267 266 266 266 265 265 264 264 264 263 263 262 262 261 261 260 260
282 282 281 281 280 279 279 278 277 276 276 275 275 274 273 273 272 271 271 270 269 269 268 267 267 266 266 265 265 265 264 264 264 263 263 263 262 262 262 261 261 260
284 283 283 282 282 281 280 280 279 278 278 277 276 275 274 273 273 272 271 270 270 269 268 268 267 266 266 265 265 264 264 263 263 263 263 262 262 262 262 261 261 260
285 285 284 284 283 282 282 281 280 280 279 278 277 276 275 274 273 272 271 271 270 269 268 268 267 266 266 265 265 264 264 263 263 263 262 262 262 262 261 261 261 260
287 286 285 285 284 283 283 282 281 281 280 279 278 277 276 275 274 274 272 271 270 269 268 267 266 266 265 264 264 263 263 262 262 262 262 262 261 261 261 260 260 260
287 287 286 286 285 284 284 283 282 282 281 280 279 279 278 277 276 275 274 273 272 271 270 268 267 266 265 264 264 263 262 261 261 261 261 260 260 260 260 260 260 259
287 287 286 286 285 285 284 283 283 282 282 281 280 280 279 278 278 277 276 275 274 273 272 270 269 268 267 266 265 264 263 262 261 261 260 260 260 259 259 259 259 258
287 287 286 286 285 284 284 283 283 282 282 281 280 280 279 279 278 277 277 276 275 274 273 272 271 270 269 268 267 266 265 264 263 262 261 261 260 260 259 258 258 257
288 287 287 286 285 285 284 284 283 282 282 281 280 280 279 279 278 277 277 276 275 274 273 272 272 271 270 269 268 267 266 265 264 264 263 262 261 260 259 259 258 257
289 288 287 287 286 285 285 284 284 283 282 282 281 281 280 280 279 278 277 276 276 275 274 274 273 272 271 271 270 269 268 267 266 265 264 263 262 261 261 260 259 258
290 289 288 288 287 287 286 285 285 284 283 283 282 282 281 281 280 279 278 277 276 276 275 275 275 274 273 272 272 271 270 268 267 266 266 265 264 263 263 262 262 261
290 290 289 289 288 288 287 287 286 285 284 284 283 283 282 281 280 279 279 278 277 276 276 275 275 274 273 273 272 271 270 268 267 265 265 265 265 264 263 263 263 262
291 291 290 290 290 289 289 288 287 287 286 286 285 284 284 283 282 281 280 279 278 277 276 276 275 274 273 272 271 270 269 268 267 265 265 264 264 264 263 263 262 261
293 292 292 291 291 290 290 289 289 288 288 287 287 286 285 284 283 282 281 280 279 278 278 277 276 275 274 273 272 271 270 269 269 268 267 266 265 264 264 262 261 260
293 293 292 292 291 291 290 290 289 288 288 287 287 286 285 284 283 282 281 281 280 280 279 278 277 276 275 275 274 273 273 272 272 271 270 268 267 265 263 262 261 260
293 292 292 291 291 290 289 289 288 287 287 286 286 285 284 283 282 281 281 280 280 279 279 278 278 277 276 275 274 274 274 273 272 271 270 269 267 265 263 262 261 261
293 292 291 291 290 289 288 288 287 287 286 286 285 284 283 282 282 281 280 279 279 278 278 278 277 277 276 275 274 274 274 273 271 270 269 268 266 264 263 262 262 261
294 293 292 291 290 289 289 288 287 287 286 286 285 285 284 283 282 282 281 280 280 279 279 279 278 276 275 275 274 274 272 271 269 269 268 266 265 264 264 263 262 262
295 295 294 293 292 291 290 290 289 289 288 288 287 286 284 283 283 282 282 281 281 281 281 279 277 276 275 275 275 273 271 270 269 268 266 265 265 265 265 263 262 261
297 297 296 295 294 293 292 292 291 291 290 290 289 287 285 284 283 282 282 282 282 282 281 279 277 275 276 275 274 273 271 271 270 268 267 266 266 266 265 264 262 261
Height
10186 10184 10183 10182 10180 10178 10177 10176 10175 10173 10171 10170 10168 10166 10164 10162 10160 10159 10158 10157 10156 10155 10153 10152 10151 10149 10149 10149 10149 10150 10151 10152 10153 10154 10154 10156 10158 10158 10160 10161 10161 10164
10165 10163 10161 10159 10157 10155 10153 10153 10152 10150 10149 10148 10146 10144 10143 10140 10139 10138 10136 10135 10134 10132 10131 10129 10128 10127 10127 10127 10126 10127 10128 10128 10129 10130 10131 10135 10136 10136 10138 10139 10139 10141
10145 10142 10140 10137 10135 10133 10131 10129 10128 10127 10126 10125 10123 10122 10121 10119 10117 10116 10114 10113 10112 10110 10108 10107 10106 10105 10105 10105 10104 10105 10105 10105 10105 10105 10107 10111 10112 10113 10115 10116 10117 10120
10125 10122 10119 10117 10114 10112 10110 10108 10106 10104 10103 10102 10101 10100 10099 10097 10096 10094 10092 10091 10090 10089 10087 10085 10084 10082 10082 10082 10082 10083 10083 10082 10082 10081 10083 10088 10088 10088 10092 10092 10094 10097
10106 10103 10099 10096 10093 10090 10089 10087 10085 10083 10081 10080 10079 10077 10076 10075 10074 10073 10071 10070 10068 10067 10066 10064 10062 10061 10059 10059 10059 10060 10060 10059 10059 10058 10060 10064 10064 10064 10067 10069 10070 10074
10086 10083 10080 10077 10073 10070 10067 10065 10063 10061 10059 10058 10056 10054 10053 10053 10052 10051 10050 10049 10048 10046 10045 10043 10041 10039 10038 10037 10038 10037 10037 10037 10036 10036 10038 10041 10042 10041 10043 10044 10046 10051
10066 10063 10060 10057 10053 10049 10047 10045 10042 10040 10038 10037 10035 10033 10032 10031 10030 10028 10028 10027 10027 10025 10023 10022 10020 10019 10017 10017 10017 10017 10016 10015 10015 10015 10016 10019 10020 10020 10021 10021 10023 10029
10046 10042 10039 10036 10033 10028 10025 10023 10021 10019 10017 10016 10014 10012 10010 10009 10008 10007 10006 10005 10005 10004 10002 10000 9999 9997 9996 9996 9996 9996 9995 9994 9994 9994 9995 9997 9998 9999 9999 9998 10001 10007
10026 10022 10019 10016 10013 10008 10004 10001 10000 9998 9996 9994 9993 9991 9989 9987 9986 9986 9985 9984 9983 9982 9980 9979 9977 9976 9976 9975 9975 9975 9974 9974 9974 9973 9975 9977 9977 9978 9979 9977 9979 9985
10006 10002 9999 9995 9993 9989 9985 9982 9979 9977 9975 9973 9972 9970 9968 9966 9964 9964 9964 9963 9962 9961 9959 9958 9957 9956 9955 9954 9953 9953 9954 9954 9954 9953 9954 9956 9958 9959 9958 9957 9958 9962
9986 9982 9979 9975 9972 9969 9966 9962 9959 9957 9954 9952 9950 9948 9946 9945 9943 9943 9942 9942 9941 9940 9939 9938 9936 9936 9935 9934 9932 9932 9933 9935 9935 9934 9935 9936 9938 9939 9938 9938 9938 9941
9967 9964 9960 9955 9952 9948 9946 9943 9940 9937 9935 9932 9929 9927 9925 9923 9922 9921 9920 9919 9918 9917 9916 9915 9914 9914 9913 9912 9911 9911 9912 9914 9915 9915 9916 9916 9918 9919 9919 9919 9919 9920
9950 9945 9941 9937 9932 9929 9926 9923 9920 9917 9915 9912 9909 9907 9905 9903 9901 9899 9898 9897 9896 9895 9893 9892 9892 9891 9890 9890 9890 9890 9890 9893 9894 9895 9896 9898 9899 9899 9899 9899 9899 9899
9932 9927 9922 9918 9913 9910 9907 9904 9901 9898 9895 9892 9889 9887 9885 9884 9881 9879 9877 9875 9874 9873 9872 9871 9870 9869 9868 9867 9869 9869 9869 9871 9874 9874 9876 9879 9879 9879 9878 9877 9877 9877
9913 9908 9903 9898 9894 9891 9888 9885 9882 9878 9875 9872 9870 9868 9866 9864 9862 9860 9858 9856 9853 9852 9851 9850 9849 9849 9847 9847 9848 9850 9850 9851 9854 9855 9856 9858 9859 9858 9857 9856 9857 9857
9893 9889 9884 9879 9875 9873 9870 9867 9863 9860 9857 9854 9851 9849 9848 9845 9843 9840 9837 9836 9834 9833 9831 9830 9829 9828 9827 9828 9829 9830 9831 9832 9834 9836 9836 9837 9838 9838 9838 9837 9837 9837
9875 9871 9866 9861 9857 9855 9852 9849 9845 9842 9839 9837 9834 9832 9830 9827 9824 9821 9819 9816 9815 9815 9814 9812 9811 9809 9808 9810 9811 9810 9811 9813 9815 9816 9816 9817 9818 9818 9819 9819 9818 9818
9859 9854 9849 9844 9840 9837 9834 9830 9827 9824 9821 9820 9818 9816 9813 9810 9806 9803 9801 9798 9796 9798 9798 9797 9794 9791 9790 9792 9793 9792 9791 9790 9793 9798 9799 9800 9800 9800 9801 9802 9801 9800
9844 9839 9834 9829 9824 9821 9817 9813 9809 9807 9804 9802 9801 9798 9795 9791 9788 9785 9783 9779 9778 9780 9781 9780 9778 9774 9773 9774 9774 9773 9771 9769 9773 9779 9783 9785 9784 9783 9784 9785 9784 9783
9829 9824 9819 9814 9809 9805 9801 9797 9793 9790 9787 9785 9784 9781 9777 9773 9769 9766 9764 9760 9759 9761 9763 9763 9759 9756 9755 9756 9754 9753 9752 9753 9756 9761 9765 9768 9768 9767 9766 9766 9765 9764
9814 9810 9804 9799 9795 9790 9786 9782 9778 9775 9772 9770 9769 9765 9761 9758 9754 9750 9748 9745 9742 9743 9746 9747 9742 9738 9738 9738 9736 9736 9737 9739 9742 9744 9746 9749 9750 9748 9747 9747 9746 9745
9800 9796 9791 9786 9782 9777 9773 9768 9764 9761 9759 9757 9755 9752 9747 9743 9740 9737 9734 9732 9730 9728 9730 9732 9728 9723 9722 9723 9722 9721 9724 9726 9727 9727 9728 9731 9731 9729 9728 9729 9729 9730
9786 9783 9779 9774 9769 9764 9759 9755 9751 9748 9745 9742 9741 9739 9733 9728 9726 9724 9720 9718 9718 9716 9716 9719 9717 9709 9706 9708 9709 9709 9711 9712 9711 9711 9712 9713 9711 9710 9712 9715 9716 9717
9772 9768 9764 9760 9755 9750 9745 9741 9738 9735 9732 9729 9727 9725 9720 9714 9711 9710 9706 9701 9703 9704 9704 9705 9703 9696 9692 9694 9696 9696 9696 9696 9697 9698 9697 9694 9693 9695 9699 9703 9703 9704
9757 9753 9749 9745 9741 9736 9730 9727 9725 9722 9718 9715 9713 9710 9706 9701 9697 9697 9693 9687 9687 9691 9692 9691 9688 9683 9679 9680 9682 9681 9680 9681 9684 9685 9681 9678 9680 9684 9688 9690 9691 9691
9743 9739 9736 9731 9727 9723 9718 9713 9712 9711 9706 9702 9699 9695 9691 9687 9684 9684 9682 9677 9675 9678 9678 9675 9673 9671 9668 9667 9668 9666 9666 9669 9671 9669 9666 9667 9670 9674 9675 9677 9679 9679